Content
SEND FEEDBACK

Daily
Averages
Monthly
Summary
Mexico

CANCUN, QUINTANA ROO


Home > North America > Mexico > Quintana Roo
Elevation: 30 feet     Latitude: 21 09N     Longitude: 086 49W

WEATHER
 
SELECT A DAY
Number of Records: 163,905;   Date Range: 1/1/95 - 8/10/14
 
SHARE

PRINT THIS DATA

[ ← Previous Day ]
WEATHER ALMANAC - FEBRUARY 17, 2013
[ Next Day → ]
[ °C ]   °F
Weather ElementAverageHighLow
Temperature67.5 °F75.2 °F (10:46 am)55.4 °F (5:43 am)
Dewpoint53.1 °F57.2 °F (4:46 pm)51.8 °F (3:45 am)
Humidity61.9 %88 % (5:43 am)44 % (10:46 am)
Barometer30.18 in30.23 in (9:44 am)30.13 in (2:46 am)
Wind Speed6.4 mph9.2 mph (2:46 am)
Weather ElementAverage
Visibility7 mi
Wind DirectionSSE (150.9 °)

Weather ElementTotal
Precipitation---
Cooling Degree Days0.3 (Base 65)
Growing Degree Days15.3 (Base 50)
Averaged from 23 records on February 17, 2013
WEATHER CONDITIONS BREAKOUT
WIND DIRECTION BREAKOUT
WEATHER BY HOUR - FEBRUARY 17, 2013
[ °C ]   °F
Local TimeTemperatureDewpointHumidityBarometerVisibilityWind DirectionWind SpeedGust SpeedPrecipitationEventsConditions
1:44 AM59.0 °F53.6 °F82 %30.15 in7.0 miNW (320°)5.8 mphClear
2:46 AM59.0 °F53.6 °F82 %30.13 in7.0 miNW (310°)9.2 mphPartly Cloudy
3:45 AM59.0 °F51.8 °F77 %30.15 in7.0 miWNW (300°)5.8 mphScattered Clouds
4:44 AM57.2 °F51.8 °F82 %30.16 in7.0 miNW (310°)5.8 mphScattered Clouds
5:43 AM55.4 °F51.8 °F88 %30.15 in7.0 miNW (310°)5.8 mphScattered Clouds
6:42 AM55.4 °F51.8 °F88 %30.19 in7.0 miWNW (300°)5.8 mphScattered Clouds
7:43 AM64.4 °F55.4 °F73 %30.21 in7.0 miNW (320°)5.8 mphScattered Clouds
8:43 AM71.6 °F53.6 °F53 %30.21 in7.0 miNorth (350°)8.1 mphScattered Clouds
9:44 AM73.4 °F51.8 °F47 %30.23 in7.0 miNorth (350°)6.9 mphScattered Clouds
10:46 AM75.2 °F51.8 °F44 %30.23 in7.0 miNNE (30°)8.1 mphMostly Cloudy
11:44 AM73.4 °F51.8 °F47 %30.21 in7.0 miNNE (20°)8.1 mphMostly Cloudy
12:45 PM75.2 °F51.8 °F44 %30.20 in7.0 miNE (50°)8.1 mphMostly Cloudy
1:44 PM73.4 °F53.6 °F50 %30.18 in7.0 miNE (40°)9.2 mphMostly Cloudy
2:45 PM75.2 °F51.8 °F44 %30.17 in7.0 miNNE (20°)5.8 mphScattered Clouds
3:43 PM73.4 °F53.6 °F50 %30.17 in7.0 miNNE (30°)9.2 mphScattered Clouds
4:46 PM71.6 °F57.2 °F60 %30.17 in7.0 miNE (40°)8.1 mphMostly Cloudy
5:41 PM69.8 °F55.4 °F60 %30.18 in7.0 miNE (50°)6.9 mphMostly Cloudy
6:55 PM69.8 °F55.4 °F60 %30.18 in7.0 miNE (50°)4.6 mphMostly Cloudy
7:40 PM69.8 °F53.6 °F56 %30.18 in7.0 miENE (70°)5.8 mphMostly Cloudy
8:40 PM68.0 °F51.8 °F56 %30.19 in7.0 miNE (40°)2.3 mphMostly Cloudy
9:47 PM69.8 °F53.6 °F56 %30.20 in7.0 miNE (50°)5.8 mphMostly Cloudy
10:46 PM66.2 °F51.8 °F60 %30.20 in7.0 miNE (40°)3.5 mphPartly Cloudy
11:46 PM66.2 °F53.6 °F64 %30.18 in7.0 miENE (70°)3.5 mphScattered Clouds
Hourly data recorded from MMUN, located miles away from Cancun, Quintana Roo







STORIES FROM OUR PARTNERS